STARLINK-11678, 64326

Orbit data source: Space-Track

STARLINK-11678, 64326 is a payload satellite owned by SpaceX/Seattle (US) in LEO that was launched on Tue, 10 Jun 2025 UTC via an FALCON 9 launch vehicle from the Air Force Eastern Test Range (AFETR). Payload-class satellites include a variety of spacecraft equipped with specific instruments for various scientific and technological missions. These include communications satellites like Starlink; space stations such as the ISS; scientific satellites like the Hubble; Earth observation satellites from companies like Planet Labs, Umbra, and HawkEye 360; GPS; miniature CubeSats for education and research; and military/defense satellites.

Loading next visibility...
Identifier
64326, 2025-124K
Orbit
LEO
Country
Flag of USUS
Related business
Manufacturer
SpaceX/Seattle
Mission
Operational Commercial Communications
Bus & Motor
STARLINK V2M, Unknown motor
Mass
730 kg wet, ~700 kg dry
Launch date (UTC)
2025-06-10 (3 months ago)
Launch vehicle
FALCON 9
Launch site
Air Force Eastern Test Range (AFETR)
Object type
Payload
Rocket body
Debris
Shape & HBR
Box + 2 Pan, 14.5 m
Radar Cross Section
36.964 m², Large (>1 m²)

Expand to show TLE details & history
Last TLE update: 6 hours ago

TLE from 6 hours ago
0 STARLINK-11678
1 64326U 25124K   25242.88217112  .00357113  00000-0  26594-2 0  9998
2 64326  42.9982  99.4922 0001647 244.6556 115.4141 15.70923211 12823
Epoch: 2025-08-30T21:10Z
TLE epoch observation values (Epoch: 2025-08-30T21:10:19.584Z)
Latitude
-0.00004°
Longitude
162.60046°
Altitude
356.504 km
Speed
7.697 km/s
True Right ascension
06h 37m 58s
True Declination
0° 00' 00"
Sunlit
Object was in daylight at epoch
Visualization orbit readout
Latitude
Unknown
Longitude
Unknown
Altitude
Unknown
Speed
Unknown
Apparent Right ascension
Unknown
Apparent Declination
Unknown
Sunlit
N/A
Visualization observer readout
Local Sidereal Time
19:08:25
Azimuth
Unknown
Elevation
Unknown
Doppler factor
Unknown
Orbital elements
Apogee altitude
359.349 km
Perigee altitude
357.13 km
Semi-major axis
6,736.376 km
Eccentricity
0.00016
Inclination
42.9982°
RAAN
99.4922°
Arg. of periapsis
244.6556°
True anomaly
115.43115°
Mean anomaly
115.4141°
Eccentric anomaly
115.42262°
Mean motion
3.92558 °/min
Orbital period
91.71 mins
BSTAR
0.0026594
Loading maneuver chart data...
Computing Atmospheric mass density...
Loading historical data...
Loading historical data...
Loading historical data...
Loading historical data...
Loading historical data...
Loading historical data...
Loading historical data...

Documentation

Showing up to 5 results
|